When you browse on this site, cookies collect data to enhance your experience and personalize the content and advertising you see.
Visit our Privacy Policy to learn more. By continuing to use the site, you agree to this use of cookies and data.
  • In Austria
  • List of Countries
  • For 7 days
  • Water Temperature
  • Weather Map
  • News
  • Weather Widgets
  • user-avatar
    Login

    Hourly Weather Rysaevo

    Today, 18 November, Monday

    Time Temperature Precipitation Wind Pressure Humidity
    00:00 -3°C° 0 mm 4 mps 749 mmHg 90%
    01:00 -2°C° 0 mm 3 mps 748 mmHg 92%
    02:00 -2°C° 0 mm 3 mps 748 mmHg 93%
    03:00 -2°C° 0 mm 3 mps 748 mmHg 94%
    04:00 -3°C° 0 mm 4 mps 748 mmHg 97%
    05:00 -3°C° 0 mm 4 mps 748 mmHg 96%
    06:00 -2°C° 0 mm 4 mps 748 mmHg 95%
    07:00 -1°C° 0 mm 3 mps 748 mmHg 94%
    08:00 -2°C° 0 mm 4 mps 748 mmHg 93%
    09:00 -2°C° 0 mm 4 mps 748 mmHg 91%
    10:00 -1°C° 0 mm 4 mps 748 mmHg 90%
    11:00 -1°C° 0 mm 4 mps 748 mmHg 87%
    12:00 -1°C° 0 mm 4 mps 748 mmHg 84%
    13:00 0°C° 0 mm 4 mps 747 mmHg 81%
    14:00 -1°C° 0 mm 4 mps 747 mmHg 85%
    15:00 -1°C° 0 mm 4 mps 747 mmHg 89%
    16:00 -2°C° 0 mm 4 mps 747 mmHg 93%
    17:00 -2°C° 0.1 mm 4 mps 747 mmHg 94%
    18:00 -1°C° 0.1 mm 3 mps 746 mmHg 95%
    19:00 -1°C° 0.1 mm 3 mps 746 mmHg 96%
    20:00 -1°C° 0 mm 3 mps 746 mmHg 96%
    21:00 -1°C° 0 mm 3 mps 745 mmHg 96%
    22:00 -1°C° 0 mm 3 mps 745 mmHg 97%
    23:00 -1°C° 0.3 mm 3 mps 745 mmHg 97%

    Tomorrow, 19 November, Tuesday

    Time Temperature Precipitation Wind Pressure Humidity
    00:00 -1°C° 0.3 mm 3 mps 744 mmHg 98%
    01:00 -1°C° 0.3 mm 3 mps 744 mmHg 98%
    02:00 -1°C° 1 mm 2 mps 744 mmHg 98%
    03:00 -1°C° 1 mm 2 mps 744 mmHg 98%
    04:00 -1°C° 1 mm 2 mps 744 mmHg 98%
    05:00 -1°C° 0.2 mm 2 mps 744 mmHg 97%
    06:00 -1°C° 0.2 mm 3 mps 744 mmHg 96%
    07:00 -3°C° 0.2 mm 4 mps 744 mmHg 94%
    08:00 -5°C° 0 mm 5 mps 744 mmHg 91%
    09:00 -7°C° 0 mm 7 mps 745 mmHg 88%
    10:00 -10°C° 0 mm 8 mps 746 mmHg 85%
    11:00 -11°C° 0 mm 8 mps 746 mmHg 85%
    12:00 -12°C° 0 mm 8 mps 746 mmHg 84%
    13:00 -13°C° 0 mm 8 mps 746 mmHg 83%
    14:00 -15°C° 0 mm 8 mps 747 mmHg 83%
    15:00 -15°C° 0 mm 8 mps 748 mmHg 84%
    16:00 -16°C° 0 mm 8 mps 748 mmHg 84%
    17:00 -17°C° 0.1 mm 8 mps 749 mmHg 84%
    18:00 -18°C° 0.1 mm 8 mps 749 mmHg 84%
    19:00 -20°C° 0.1 mm 9 mps 750 mmHg 84%
    20:00 -19°C° 0 mm 8 mps 750 mmHg 80%
    21:00 -21°C° 0 mm 8 mps 751 mmHg 76%
    22:00 -22°C° 0 mm 8 mps 751 mmHg 73%
    23:00 -22°C° 0 mm 8 mps 751 mmHg 74%

    Day after tomorrow, 20 November, Wednesday

    Time Temperature Precipitation Wind Pressure Humidity
    00:00 -23°C° 0 mm 8 mps 752 mmHg 75%
    01:00 -23°C° 0 mm 8 mps 752 mmHg 76%
    02:00 -24°C° 0 mm 8 mps 753 mmHg 77%
    03:00 -24°C° 0 mm 8 mps 753 mmHg 77%
    04:00 -24°C° 0 mm 7 mps 754 mmHg 78%
    05:00 -25°C° 0 mm 7 mps 754 mmHg 79%
    06:00 -25°C° 0 mm 7 mps 754 mmHg 79%
    07:00 -25°C° 0 mm 7 mps 755 mmHg 80%
    08:00 -25°C° 0 mm 7 mps 755 mmHg 79%
    09:00 -25°C° 0 mm 7 mps 756 mmHg 78%
    10:00 -25°C° 0 mm 7 mps 756 mmHg 77%
    11:00 -24°C° 0 mm 7 mps 756 mmHg 76%
    12:00 -24°C° 0 mm 7 mps 756 mmHg 75%
    13:00 -22°C° 0 mm 6 mps 757 mmHg 74%
    14:00 -22°C° 0 mm 6 mps 757 mmHg 75%
    15:00 -22°C° 0 mm 6 mps 757 mmHg 77%
    16:00 -22°C° 0 mm 6 mps 757 mmHg 79%
    17:00 -22°C° 0 mm 6 mps 758 mmHg 80%
    18:00 -22°C° 0 mm 6 mps 758 mmHg 80%
    19:00 -23°C° 0 mm 6 mps 758 mmHg 81%
    20:00 -22°C° 0 mm 5 mps 759 mmHg 81%
    21:00 -21°C° 0 mm 5 mps 759 mmHg 81%
    22:00 -21°C° 0 mm 5 mps 759 mmHg 82%
    23:00 -20°C° 0 mm 4 mps 759 mmHg 82%

    21 November, Thursday

    Time Temperature Precipitation Wind Pressure Humidity
    00:00 -20°C° 0 mm 4 mps 760 mmHg 82%
    01:00 -20°C° 0 mm 4 mps 760 mmHg 82%
    02:00 -20°C° 0 mm 4 mps 760 mmHg 82%
    03:00 -19°C° 0 mm 3 mps 760 mmHg 82%
    04:00 -19°C° 0 mm 3 mps 760 mmHg 82%
    05:00 -18°C° 0 mm 2 mps 760 mmHg 82%
    06:00 -18°C° 0 mm 2 mps 760 mmHg 82%
    07:00 -18°C° 0 mm 2 mps 760 mmHg 81%
    08:00 -17°C° 0 mm 2 mps 760 mmHg 77%
    09:00 -14°C° 0 mm 1 mps 760 mmHg 73%
    10:00 -14°C° 0 mm 1 mps 760 mmHg 68%
    11:00 -13°C° 0 mm 1 mps 760 mmHg 66%
    12:00 -12°C° 0 mm 1 mps 759 mmHg 64%
    13:00 -11°C° 0 mm 1 mps 759 mmHg 61%
    14:00 -11°C° 0 mm 1 mps 759 mmHg 66%
    15:00 -11°C° 0 mm 1 mps 758 mmHg 71%
    16:00 -11°C° 0 mm 1 mps 758 mmHg 76%
    17:00 -12°C° 0 mm 1 mps 758 mmHg 78%
    18:00 -12°C° 0 mm 1 mps 757 mmHg 80%
    19:00 -12°C° 0 mm 1 mps 757 mmHg 82%
    20:00 -12°C° 0 mm 1 mps 757 mmHg 83%
    21:00 -12°C° 0 mm 1 mps 757 mmHg 84%
    22:00 -12°C° 0 mm 1 mps 757 mmHg 85%
    23:00 -12°C° 0 mm 1 mps 757 mmHg 85%

    22 November, Friday

    Time Temperature Precipitation Wind Pressure Humidity
    00:00 -12°C° 0 mm 1 mps 756 mmHg 85%
    01:00 -12°C° 0 mm 1 mps 756 mmHg 85%
    02:00 -12°C° 0 mm 1 mps 756 mmHg 85%
    03:00 -12°C° 0 mm 1 mps 756 mmHg 85%
    04:00 -12°C° 0 mm 1 mps 756 mmHg 84%
    05:00 -12°C° 0 mm 1 mps 756 mmHg 84%
    06:00 -12°C° 0 mm 1 mps 756 mmHg 84%
    07:00 -12°C° 0 mm 1 mps 756 mmHg 83%
    08:00 -11°C° 0 mm 1 mps 756 mmHg 80%
    09:00 -10°C° 0 mm 1 mps 756 mmHg 78%
    10:00 -10°C° 0 mm 1 mps 756 mmHg 75%
    11:00 -9°C° 0 mm 1 mps 756 mmHg 72%
    12:00 -8°C° 0 mm 1 mps 756 mmHg 69%
    13:00 -8°C° 0 mm 1 mps 756 mmHg 67%
    14:00 -8°C° 0 mm 1 mps 755 mmHg 70%
    15:00 -9°C° 0 mm 1 mps 755 mmHg 74%
    16:00 -9°C° 0 mm 1 mps 755 mmHg 78%
    17:00 -10°C° 0 mm 1 mps 755 mmHg 79%
    18:00 -10°C° 0 mm 1 mps 755 mmHg 80%
    19:00 -10°C° 0 mm 1 mps 755 mmHg 82%
    20:00 -10°C° 0 mm 1 mps 755 mmHg 82%
    21:00 -10°C° 0 mm 1 mps 755 mmHg 82%
    22:00 -10°C° 0 mm 1 mps 754 mmHg 82%
    23:00 -10°C° 0 mm 1 mps 754 mmHg 82%

    23 November, Saturday

    Time Temperature Precipitation Wind Pressure Humidity
    00:00 -11°C° 0 mm 1 mps 754 mmHg 82%
    01:00 -11°C° 0 mm 1 mps 754 mmHg 82%
    02:00 -11°C° 0 mm 1 mps 754 mmHg 82%
    03:00 -11°C° 0 mm 1 mps 753 mmHg 82%
    04:00 -11°C° 0 mm 1 mps 753 mmHg 82%
    05:00 -11°C° 0 mm 1 mps 753 mmHg 82%
    06:00 -11°C° 0 mm 1 mps 753 mmHg 82%
    07:00 -11°C° 0 mm 1 mps 753 mmHg 81%
    08:00 -10°C° 0 mm 1 mps 752 mmHg 78%
    09:00 -10°C° 0 mm 1 mps 752 mmHg 75%
    10:00 -9°C° 0 mm 1 mps 752 mmHg 72%
    11:00 -9°C° 0 mm 2 mps 752 mmHg 70%
    12:00 -8°C° 0 mm 2 mps 751 mmHg 68%
    13:00 -8°C° 0 mm 2 mps 751 mmHg 65%
    14:00 -8°C° 0 mm 2 mps 751 mmHg 69%
    15:00 -9°C° 0 mm 2 mps 751 mmHg 73%
    16:00 -9°C° 0 mm 2 mps 750 mmHg 77%
    17:00 -10°C° 0 mm 2 mps 750 mmHg 77%
    18:00 -10°C° 0 mm 2 mps 750 mmHg 78%
    19:00 -9°C° 0 mm 1 mps 750 mmHg 78%
    20:00 -9°C° 0 mm 1 mps 750 mmHg 78%
    21:00 -9°C° 0 mm 1 mps 750 mmHg 79%
    22:00 -10°C° 0 mm 2 mps 750 mmHg 79%
    23:00 -10°C° 0 mm 2 mps 750 mmHg 80%
    Show more